{"data":{"norad_id":61747,"intl_designator":"2024-199N","name":"POLYTECH UNIVERSE-4","alt_names":[],"object_type":"PAYLOAD","status":"ACTIVE","operator":null,"country":"CIS","launch_date":"2024-11-04","launch_site_code":"VOSTO","launch_vehicle":null,"mission":null,"orbit_class":"UNKNOWN","rcs_meters":null,"size_class":null,"mass_kg":null,"dimensions":null,"purposes":[],"wikipedia_slug":null,"has_3d_model":false,"image_url":null,"decayed_at":null,"tle_current":{"epoch":"2026-09-22T21:41:09.683520Z","epoch_age_seconds":92362,"freshness":"FRESH","line1":"1 61747U 24199N   26265.90358430  .00015285  00000+0  28561-3 0  9998","line2":"2 61747  97.2824 139.7560 0006175 286.2141  73.8430 15.48821157152479","mean_motion":15.48821157,"eccentricity":0.0006175,"inclination_deg":97.2824,"raan_deg":139.756,"arg_perigee_deg":286.2141,"mean_anomaly_deg":73.843,"bstar":0.00028561,"rev_number":15247,"period_min":92.973936564065,"perigee_km":415.97549181761,"apogee_km":424.37140522153,"semimajor_km":6798.3104485196,"source":"CELESTRAK","updated_at":"2026-09-23T09:00:21.025759Z"}}}